| time (UTC) | temp F | wind direction | speed knots | gust knots | rain 1hr in | rain 24hr in | rain mn in | humidity % | barometer mb |
| 20260902034510 | 64 | 130 | 0.9 | 8.7 | 0.00 | 0.00 | 0.00 | 67 | 1016.5 |
| 20260902033017 | 65 | 105 | 1.7 | 9.6 | 0.00 | 0.00 | 0.00 | 66 | 1016.4 |
| 20260902031520 | 65 | 119 | 2.6 | 11.3 | 0.00 | 0.00 | 0.00 | 64 | 1016.3 |
| 20260902030027 | 65 | 46 | 1.7 | 7.8 | 0.00 | 0.00 | 0.00 | 62 | 1016.2 |
| 20260902024528 | 66 | 101 | 3.5 | 11.3 | 0.00 | 0.00 | 0.00 | 61 | 1016.0 |
| 20260902023033 | 67 | 115 | 2.6 | 11.3 | 0.00 | 0.00 | 0.00 | 57 | 1016.0 |
| 20260902021519 | 67 | 116 | 2.6 | 11.3 | 0.00 | 0.00 | 0.00 | 54 | 1015.7 |
| 20260902020023 | 68 | 108 | 3.5 | 13.0 | 0.00 | 0.00 | 0.00 | 53 | 1015.7 |
| 20260902014534 | 69 | 19 | 4.3 | 13.0 | 0.00 | 0.00 | 0.00 | 52 | 1015.7 |
| 20260902013031 | 70 | 137 | 5.2 | 10.4 | 0.00 | 0.00 | 0.00 | 51 | 1015.6 |
| 20260902011534 | 70 | 121 | 5.2 | 12.2 | 0.00 | 0.00 | 0.00 | 50 | 1015.5 |
| 20260902010027 | 71 | 154 | 4.3 | 12.2 | 0.00 | 0.00 | 0.00 | 49 | 1015.4 |
| 20260902004528 | 72 | 119 | 3.5 | 10.4 | 0.00 | 0.00 | 0.00 | 46 | 1015.4 |
| 20260902003033 | 72 | 109 | 3.5 | 13.0 | 0.00 | 0.00 | 0.00 | 47 | 1015.3 |
| 20260902001535 | 72 | 92 | 4.3 | 13.9 | 0.00 | 0.00 | 0.00 | 48 | 1015.3 |
| 20260902000035 | 73 | 121 | 6.1 | 13.0 | 0.00 | 0.00 | 0.00 | 45 | 1015.3 |
| 20260901234523 | 73 | 124 | 2.6 | 12.2 | 0.00 | 0.00 | 0.00 | 45 | 1015.4 |
| 20260901233025 | 73 | 107 | 6.1 | 14.8 | 0.00 | 0.00 | 0.00 | 45 | 1015.3 |
| 20260901231533 | 75 | 135 | 4.3 | 9.6 | 0.00 | 0.00 | 0.00 | 42 | 1015.4 |
| 20260901230041 | 75 | 105 | 2.6 | 9.6 | 0.00 | 0.00 | 0.00 | 41 | 1015.6 |
| 20260901224534 | 74 | 131 | 2.6 | 13.9 | 0.00 | 0.00 | 0.00 | 42 | 1015.5 |
| 20260901223025 | 74 | 119 | 4.3 | 12.2 | 0.00 | 0.00 | 0.00 | 43 | 1015.5 |
| 20260901221533 | 75 | 62 | 4.3 | 9.6 | 0.00 | 0.00 | 0.00 | 44 | 1015.5 |
| 20260901220033 | 74 | 105 | 3.5 | 11.3 | 0.00 | 0.00 | 0.00 | 44 | 1015.7 |
| 20260901214536 | 75 | 112 | 3.5 | 12.2 | 0.00 | 0.00 | 0.00 | 44 | 1015.7 |
| 20260901213055 | 74 | 99 | 5.2 | 13.9 | 0.00 | 0.00 | 0.00 | 44 | 1015.7 |
| 20260901211537 | 75 | 130 | 4.3 | 9.6 | 0.00 | 0.00 | 0.00 | 43 | 1015.6 |
| 20260901210038 | 74 | 117 | 2.6 | 10.4 | 0.00 | 0.00 | 0.00 | 47 | 1015.7 |
| 20260901204532 | 74 | 173 | 4.3 | 11.3 | 0.00 | 0.00 | 0.00 | 49 | 1015.7 |
| 20260901203042 | 74 | 121 | 3.5 | 8.7 | 0.00 | 0.00 | 0.00 | 42 | 1015.9 |
| 20260901201523 | 73 | 115 | 3.5 | 10.4 | 0.00 | 0.00 | 0.00 | 43 | 1016.1 |
| 20260901200005 | 73 | 92 | 1.7 | 8.7 | 0.00 | 0.00 | 0.00 | 44 | 1016.4 |
| 20260901194510 | 73 | 81 | 6.1 | 14.8 | 0.00 | 0.00 | 0.00 | 43 | 1016.4 |
| 20260901193017 | 73 | 94 | 4.3 | 10.4 | 0.00 | 0.00 | 0.00 | 45 | 1016.5 |
| 20260901191522 | 72 | 130 | 1.7 | 9.6 | 0.00 | 0.00 | 0.00 | 47 | 1016.4 |
| 20260901190024 | 71 | 18 | 2.6 | 9.6 | 0.00 | 0.00 | 0.00 | 50 | 1016.5 |
| 20260901184508 | 70 | 141 | 5.2 | 8.7 | 0.00 | 0.00 | 0.00 | 52 | 1016.6 |
| 20260901183012 | 67 | 129 | 2.6 | 10.4 | 0.00 | 0.00 | 0.00 | 62 | 1016.6 |
| 20260901181517 | 66 | 133 | 6.1 | 12.2 | 0.00 | 0.00 | 0.00 | 63 | 1016.7 |
| 20260901180023 | 66 | 123 | 5.2 | 9.6 | 0.00 | 0.00 | 0.00 | 66 | 1016.6 |
| 20260901174532 | 67 | 145 | 4.3 | 14.8 | 0.00 | 0.00 | 0.00 | 64 | 1016.3 |
| 20260901173006 | 69 | 349 | 2.6 | 14.8 | 0.00 | 0.00 | 0.00 | 55 | 1016.3 |
| 20260901171517 | 69 | 52 | 2.6 | 10.4 | 0.00 | 0.00 | 0.00 | 55 | 1016.2 |
| 20260901170020 | 69 | 115 | 1.7 | 11.3 | 0.00 | 0.00 | 0.00 | 56 | 1016.0 |
| 20260901164525 | 68 | 43 | 5.2 | 12.2 | 0.00 | 0.00 | 0.00 | 56 | 1015.9 |
| 20260901163029 | 68 | 76 | 6.1 | 11.3 | 0.00 | 0.00 | 0.00 | 58 | 1016.0 |
| 20260901161511 | 68 | 52 | 5.2 | 13.0 | 0.00 | 0.00 | 0.00 | 58 | 1015.9 |
| 20260901160012 | 67 | 92 | 2.6 | 8.7 | 0.00 | 0.00 | 0.00 | 60 | 1015.6 |
| 20260901154523 | 67 | 124 | 1.7 | 9.6 | 0.00 | 0.00 | 0.00 | 62 | 1015.5 |
| 20260901153024 | 66 | 307 | 2.6 | 9.6 | 0.00 | 0.00 | 0.00 | 62 | 1015.5 |
| 20260901151529 | 65 | 36 | 2.6 | 10.4 | 0.00 | 0.00 | 0.00 | 63 | 1015.1 |
| 20260901150013 | 65 | 96 | 3.5 | 10.4 | 0.00 | 0.00 | 0.00 | 66 | 1015.0 |
| 20260901144518 | 64 | 113 | 2.6 | 7.8 | 0.00 | 0.00 | 0.00 | 66 | 1014.8 |
| 20260901143028 | 63 | 65 | 4.3 | 8.7 | 0.00 | 0.00 | 0.00 | 67 | 1014.6 |
| 20260901141508 | 63 | 55 | 4.3 | 11.3 | 0.00 | 0.00 | 0.00 | 67 | 1014.5 |
| 20260901140014 | 62 | 96 | 2.6 | 7.8 | 0.00 | 0.00 | 0.00 | 69 | 1014.4 |
| 20260901134515 | 62 | 108 | 1.7 | 8.7 | 0.00 | 0.00 | 0.00 | 71 | 1014.3 |
| 20260901133026 | 62 | 104 | 2.6 | 10.4 | 0.00 | 0.00 | 0.00 | 70 | 1014.0 |
| 20260901131511 | 61 | 48 | 2.6 | 9.6 | 0.00 | 0.00 | 0.00 | 73 | 1014.0 |
| 20260901130010 | 61 | 131 | 2.6 | 6.1 | 0.00 | 0.00 | 0.00 | 75 | 1014.1 |
| 20260901124515 | 61 | 117 | 1.7 | 7.8 | 0.00 | 0.00 | 0.00 | 74 | 1014.0 |
| 20260901123020 | 61 | 117 | 0.9 | 8.7 | 0.00 | 0.00 | 0.00 | 74 | 1013.8 |
| 20260901121533 | 61 | 89 | 1.7 | 8.7 | 0.00 | 0.00 | 0.00 | 73 | 1013.6 |
| 20260901120014 | 61 | 117 | 2.6 | 7.0 | 0.00 | 0.00 | 0.00 | 73 | 1013.5 |
| 20260901114515 | 61 | 115 | 1.7 | 9.6 | 0.00 | 0.00 | 0.00 | 73 | 1013.6 |
| 20260901113016 | 61 | 103 | 2.6 | 10.4 | 0.00 | 0.00 | 0.00 | 73 | 1013.7 |
| 20260901111524 | 61 | 59 | 2.6 | 9.6 | 0.00 | 0.00 | 0.00 | 73 | 1013.7 |
| 20260901110033 | 61 | 105 | 3.5 | 7.8 | 0.00 | 0.00 | 0.00 | 73 | 1013.6 |
| 20260901104507 | 61 | 104 | 2.6 | 8.7 | 0.00 | 0.00 | 0.00 | 71 | 1013.4 |
| 20260901103013 | 61 | 74 | 4.3 | 10.4 | 0.00 | 0.00 | 0.00 | 71 | 1013.1 |
| 20260901101519 | 62 | 90 | 4.3 | 12.2 | 0.00 | 0.00 | 0.00 | 70 | 1013.1 |
| 20260901100026 | 62 | 82 | 4.3 | 9.6 | 0.00 | 0.00 | 0.00 | 69 | 1013.1 |
| 20260901094529 | 62 | 96 | 4.3 | 11.3 | 0.00 | 0.00 | 0.00 | 69 | 1013.2 |
| 20260901093006 | 62 | 92 | 6.1 | 12.2 | 0.00 | 0.00 | 0.00 | 68 | 1013.2 |
| 20260901091514 | 62 | 126 | 2.6 | 13.0 | 0.00 | 0.00 | 0.00 | 68 | 1013.4 |
| 20260901090021 | 62 | 84 | 4.3 | 14.8 | 0.00 | 0.00 | 0.00 | 69 | 1013.4 |
| 20260901084523 | 62 | 125 | 4.3 | 12.2 | 0.00 | 0.00 | 0.00 | 69 | 1013.4 |
| 20260901083031 | 62 | 81 | 2.6 | 12.2 | 0.00 | 0.00 | 0.00 | 69 | 1013.5 |
| 20260901081540 | 62 | 138 | 1.7 | 7.8 | 0.00 | 0.00 | 0.00 | 69 | 1013.5 |
| 20260901080018 | 62 | 86 | 3.5 | 11.3 | 0.00 | 0.00 | 0.00 | 68 | 1013.5 |
| 20260901074523 | 62 | 86 | 4.3 | 16.5 | 0.00 | 0.00 | 0.00 | 68 | 1013.3 |
| 20260901073030 | 62 | 113 | 4.3 | 12.2 | 0.00 | 0.00 | 0.00 | 68 | 1013.5 |
| 20260901071532 | 62 | 67 | 7.0 | 13.9 | 0.00 | 0.00 | 0.00 | 68 | 1013.3 |
| 20260901070035 | 62 | 91 | 5.2 | 15.6 | 0.00 | 0.00 | 0.00 | 68 | 1013.3 |
| 20260901064529 | 62 | 82 | 3.5 | 13.9 | 0.00 | 0.00 | 0.00 | 68 | 1013.3 |
| 20260901063030 | 62 | 66 | 7.0 | 16.5 | 0.00 | 0.00 | 0.00 | 68 | 1013.3 |
| 20260901061534 | 61 | 94 | 4.3 | 12.2 | 0.00 | 0.00 | 0.00 | 69 | 1013.4 |
| 20260901060034 | 61 | 78 | 5.2 | 13.0 | 0.00 | 0.00 | 0.00 | 69 | 1013.6 |
| 20260901054535 | 61 | 140 | 2.6 | 14.8 | 0.00 | 0.00 | 0.00 | 69 | 1013.5 |
| 20260901053025 | 61 | 125 | 3.5 | 10.4 | 0.00 | 0.00 | 0.00 | 70 | 1013.4 |
| 20260901051527 | 61 | 129 | 5.2 | 15.6 | 0.00 | 0.00 | 0.00 | 69 | 1013.5 |
| 20260901050030 | 61 | 124 | 5.2 | 10.4 | 0.00 | 0.00 | 0.00 | 69 | 1013.3 |
| 20260901044533 | 61 | 139 | 4.3 | 11.3 | 0.00 | 0.00 | 0.00 | 69 | 1013.4 |
| 20260901043036 | 62 | 98 | 4.3 | 14.8 | 0.00 | 0.00 | 0.00 | 69 | 1013.3 |
| 20260901041526 | 62 | 195 | 4.3 | 13.9 | 0.00 | 0.00 | 0.00 | 69 | 1013.2 |
| 20260901040032 | 62 | 130 | 3.5 | 12.2 | 0.00 | 0.00 | 0.00 | 69 | 1013.2 |